User: anonymous   Login
Location: Unspecified
(0.0000°N, 0.0000°E)
Time: 19:03:11
(UTC+00:00)
Language:

BIRD BB - Orbit

View from above orbital plane
View from above orbital plane
View from above satellite
View from above satellite

Ground track
Ground track

The orbit data is extracted from the following two-line orbital elements,

1 42823U 98067MX  19107.55973300 +.00292459 +48530-4 +47420-3 0  9994
2 42823 051.6223 228.9020 0009546 319.6699 040.3603 16.02795445101898
Epoch (UTC): 17 April 2019 13:26:00
Eccentricity: 0.0009546
inclination: 51.6223°
perigee height: 260 km
apogee height: 273 km
right ascension of ascending node: 228.9020°
argument of perigee: 319.6699°
revolutions per day: 16.02795445
mean anomaly at epoch: 40.3603°
orbit number at epoch: 10189

The dashed part of the orbit path shows where the satellite is in the earth's shadow,  

DLR